Location: Ferintosh
(52.7647°N, 112.9692°W)
Time: 14:33:50
(UTC+00:00)

Transit 2A Rocket - Pass Details

Date: 20 May 2024
Orbit: 583 x 910 km, 66.7° (Epoch: 14 June)

Event Time Altitude Azimuth Distance (km) Brightness Sun altitude
Rises 18:28:45 0° 318° (NW) 3,321 8.0 55.4°
Reaches altitude 10° 18:31:18 10° 326° (NW) 2,437 7.4 55.6°
Maximum altitude 18:36:35 38° 34° (NE) 1,300 6.5 55.9°
Drops below altitude 10° 18:42:09 10° 102° (ESE) 2,573 8.1 56.2°
Sets 18:44:54 0° 111° (ESE) 3,528 8.7 56.4°
